TimeCDT,TemperatureF,Dew PointF,Humidity,Sea Level PressureIn,VisibilityMPH,Wind Direction,Wind SpeedMPH,Gust SpeedMPH,PrecipitationIn,Events,Conditions,WindDirDegrees,DateUTC
12:53 AM,69.1,66.0,90,29.83,10.0,SE,9.2,-,N/A,,Clear,130,2013-04-30 05:53:00
1:53 AM,69.1,66.0,90,29.81,10.0,SE,6.9,-,N/A,,Clear,130,2013-04-30 06:53:00
2:53 AM,66.9,64.9,93,29.78,7.0,NNE,6.9,-,N/A,,Scattered Clouds,30,2013-04-30 07:53:00
3:53 AM,66.0,64.0,93,29.80,5.0,NE,4.6,-,N/A,,Mostly Cloudy,40,2013-04-30 08:53:00
4:53 AM,66.0,64.9,96,29.78,6.0,ENE,5.8,-,N/A,,Scattered Clouds,70,2013-04-30 09:53:00
5:45 AM,66.2,66.2,100,29.79,7.0,Calm,Calm,-,0.00,Thunderstorm,Thunderstorm,0,2013-04-30 10:45:00
5:53 AM,66.9,66.0,97,29.78,6.0,NE,5.8,-,0.00,Thunderstorm,Overcast,50,2013-04-30 10:53:00
6:11 AM,66.2,66.2,100,29.80,7.0,South,3.5,-,0.01,Rain,Light Rain,170,2013-04-30 11:11:00
6:53 AM,68.0,66.0,93,29.80,8.0,SSE,4.6,-,0.05,Rain,Light Rain,160,2013-04-30 11:53:00
7:53 AM,68.0,66.0,93,29.79,10.0,ESE,4.6,-,0.02,,Overcast,120,2013-04-30 12:53:00
8:53 AM,71.1,66.9,87,29.80,10.0,ESE,4.6,-,N/A,,Scattered Clouds,110,2013-04-30 13:53:00
9:53 AM,73.9,68.0,82,29.81,10.0,SSE,5.8,-,N/A,,Mostly Cloudy,160,2013-04-30 14:53:00
10:53 AM,75.0,68.0,79,29.83,10.0,South,12.7,-,N/A,,Mostly Cloudy,170,2013-04-30 15:53:00
11:53 AM,75.9,68.0,76,29.83,10.0,SSE,11.5,-,N/A,,Mostly Cloudy,160,2013-04-30 16:53:00
12:53 PM,78.1,68.0,71,29.81,10.0,SSE,11.5,-,N/A,,Partly Cloudy,160,2013-04-30 17:53:00
1:53 PM,79.0,68.0,69,29.78,10.0,SSE,10.4,-,N/A,,Clear,150,2013-04-30 18:53:00
2:53 PM,78.1,68.0,71,29.77,10.0,SSE,10.4,-,N/A,,Clear,160,2013-04-30 19:53:00
3:53 PM,78.1,68.0,71,29.76,10.0,SE,12.7,-,N/A,,Clear,140,2013-04-30 20:53:00
5:53 PM,78.1,64.0,62,29.76,10.0,SE,15.0,-,N/A,,Clear,140,2013-04-30 22:53:00
6:53 PM,75.2,66.2,73,29.75,10.0,SE,11.5,-,N/A,,Clear,130,2013-04-30 23:53:00
7:53 PM,73.0,69.1,87,29.77,10.0,SE,11.5,-,N/A,,Clear,130,2013-05-01 00:53:00
8:03 PM,73.4,69.8,88,29.77,10.0,SE,11.5,18.4,N/A,,Partly Cloudy,140,2013-05-01 01:03:00
8:23 PM,73.4,69.8,88,29.77,10.0,SE,12.7,20.7,N/A,,Mostly Cloudy,140,2013-05-01 01:23:00
8:31 PM,71.6,69.8,94,29.77,10.0,SE,10.4,-,N/A,,Scattered Clouds,140,2013-05-01 01:31:00
8:44 PM,71.6,69.8,94,29.77,10.0,SE,16.1,-,N/A,,Mostly Cloudy,140,2013-05-01 01:44:00
8:53 PM,72.0,69.1,91,29.78,10.0,SE,12.7,-,N/A,,Scattered Clouds,140,2013-05-01 01:53:00
9:53 PM,71.1,69.1,93,29.81,10.0,SE,8.1,-,N/A,,Clear,140,2013-05-01 02:53:00
10:53 PM,72.0,68.0,87,29.80,10.0,SSE,13.8,-,N/A,,Clear,150,2013-05-01 03:53:00
11:53 PM,71.6,68.0,88,29.80,10.0,SE,9.2,-,N/A,,Clear,140,2013-05-01 04:53:00